Terminal Aerodrome Forecast
Issued by NWS

Home | Current Version | Previous Version | Text Only | Print | Product List | Glossary On
Versions: 1 2 3 4 5 6 7 8 9 10 11 12 13 14 15 16 17 18 19 20 21 22 23 24 25 26 27 28 29 30 31 32 33 34 35 36 37 38 39 40 41 42 43 44 45 46 47 48 49 50
773
FTUS41 KCTP 262337
TAFBFD
TAF
KBFD 262337Z 2700/2724 24007KT P6SM VCSH BKN150
     FM270300 VRB03KT P6SM -SHRA BKN060
     FM271000 14003KT P6SM VCSH OVC030
     FM271400 18005KT P6SM -SHRA OVC045
     FM271800 18004KT P6SM BKN050=

USA.gov is the U.S. government's official web portal to all federal, state and local government web resources and services.